Погода в 1-е отд. совхоза Бондарский

Россия / Тамбовская область     52°56′59″N   42°02′26″E
темп.,
°C
ветер,
м/с
пор.,
м/с
влажн.,
%
обл.,
%
осадки,
мм/ч
давл.,
гПа
погр.,
м
19 апреля, пн
пн1900:00+9всв3480100 0.1 101897
03:00+8всв3688100 0.3 1018201
06:00+8всв4988100 1.2 1018416
09:00+7всв6986100 2.5 1018685
12:00+7в6990100 0.6 1018761
15:00+8в71084100 0.9 1019817
18:00+7в71286100 0.0 1018817
21:00+7в61286100 0.1 1019700
20 апреля, вт
вт2000:00+7в71287100 0.4 1019688
03:00+4в71294100 0.4 1019651
06:00+4в61193100 0.1 1018601
09:00+5вюв61290100 0.2 1019622
12:00+5вюв71388100 0.0 1018679
15:00+4в91686100 0.3 1016735
18:00+4вюв102089100 1.9 1013818
21:00+6вюв132489100 4.3 1009977
21 апреля, ср
ср2100:00+7юв112191100 6.5 10071110
03:00+9юв111991100 9.9 1005985
06:00+9ююв101787100 0.4 10041193
09:00+7ю101786100 0.8 10061246
12:00+7ююз91582100 0.1 10101309
15:00+9ююз71378100 0.2 10131467
18:00+9ююз377532 0.1 1015443
21:00+7ююв3690100 0.1 1016121
22 апреля, чт
чт2200:00+7ююз359287 0.6 101799
03:00+5ююз38925 0.7 1019195
06:00+4ю49885 0.0 1020232
09:00+10ююз696730 0.0 1021691
12:00+13ююз685497 0.0 10211814
15:00+13ююз4757100 0.1 10211270
18:00+12ю3765100 0.1 1022226
21:00+10ю3766100 0.1 1023133
23 апреля, пт
пт2300:00+9ю376994 0.0 1023142
03:00+9ююв4769100 0.0 1022126
06:00+9ююв3773100 0.0 1022128
09:00+11ююв4972100 0.0 1022314
12:00+15ю565094 0.3 10212045
15:00+13ююв376270 0.6 1019197
18:00+13ююв586420 0.4 1019423
21:00+10ююв4107877 0.4 1018202